Location: Borgo
(42.3939°N, 9.2791°E)
Time: 18:24:15
(UTC+00:00)

COSMOS 2487 - Pass Details

Date: 27 February 2020
Orbit: 443 x 445 km, 74.7° (Epoch: 31 March)

Event Time Altitude Azimuth Distance (km) Brightness Sun altitude
Rises 18:35:01 0° 332° (NNW) 2,445 6.6 -16.6°
Reaches altitude 10° 18:37:12 10° 323° (NW) 1,569 5.7 -17.0°
Maximum altitude 18:40:21 34° 257° (WSW) 752 4.1 -17.5°
Drops below altitude 10° 18:43:29 10° 191° (S) 1,557 5.2 -18.1°
Sets 18:45:39 0° 182° (S) 2,422 6.1 -18.5°
